Location: Pine Creek
(45.5072°N, 110.5649°W)
Time: 22:11:49
(UTC+00:00)

Envisat - Visible Passes

Search period start: 20 January 2022 00:00
Search period end: 30 January 2022 00:00
Orbit: 764 x 766 km, 98.2° (Epoch: 20 January)

Date Brightness Start Highest point End Pass type
(mag) Time Alt. Az. Time Alt. Az. Time Alt. Az.
20 Jan 6.2 01:01:56 10° WSW 01:03:44 12° W 01:05:33 10° WNW visible
20 Jan 4.9 11:26:02 10° NE 11:30:18 26° E 11:34:32 10° SSE visible
20 Jan 3.3 13:04:40 10° N 13:09:27 42° WNW 13:14:12 10° SW visible
21 Jan 5.9 10:50:58 10° ENE 10:53:00 12° E 10:55:01 10° ESE visible
21 Jan 2.8 12:27:35 10° NNE 12:32:42 87° WNW 12:37:46 10° SSW visible
21 Jan 4.6 14:08:32 10° NNW 14:10:56 14° WNW 14:13:21 10° W visible
22 Jan 4.0 11:50:53 10° NNE 11:55:44 44° E 12:00:35 10° S visible
22 Jan 3.9 13:30:22 10° N 13:34:32 26° WNW 13:38:40 10° WSW visible
23 Jan 6.0 00:49:05 10° SW 00:51:59 15° W 00:54:54 10° NW visible
23 Jan 5.3 11:14:46 10° NE 11:18:36 21° E 11:22:24 10° SE visible
23 Jan 3.1 12:52:58 10° N 12:57:55 52° WNW 13:02:49 10° SW visible
24 Jan 3.1 12:16:00 10° NNE 12:21:06 75° ESE 12:26:11 10° S visible
24 Jan 4.4 13:56:24 10° NNW 13:59:30 17° WNW 14:02:38 10° W visible
25 Jan 4.4 11:39:26 10° NNE 11:44:05 35° E 11:48:43 10° SSE visible
25 Jan 3.6 13:18:34 10° N 13:23:02 32° WNW 13:27:29 10° SW visible
26 Jan 5.6 11:03:38 10° NE 11:06:53 17° E 11:10:06 10° SE visible
26 Jan 2.9 12:41:18 10° N 12:46:22 66° WNW 12:51:23 10° SSW visible
27 Jan 3.4 12:04:26 10° NNE 12:09:29 60° E 12:14:30 10° S visible
27 Jan 4.2 13:44:24 10° NNW 13:48:04 20° WNW 13:51:42 10° WSW visible
28 Jan 6.4 01:04:35 10° W 01:05:53 11° W 01:07:10 10° WNW visible
28 Jan 4.8 11:28:03 10° NE 11:32:25 28° E 11:36:45 10° SSE visible
28 Jan 3.4 13:06:48 10° N 13:11:31 39° WNW 13:16:12 10° SW visible
29 Jan 5.8 10:52:45 10° ENE 10:55:08 13° E 10:57:30 10° ESE visible
29 Jan 2.8 12:29:40 10° NNE 12:34:47 82° WNW 12:39:52 10° SSW visible
29 Jan 4.7 14:10:50 10° NNW 14:12:59 13° NW 14:15:08 10° W visible
